Location: Penum?ka
(16.4840°N, 80.5772°E)
Time: 14:51:57
(UTC+00:00)

Atlas Centaur 2 - Pass Details

Date: 19 May 2025
Orbit: 456 x 1257 km, 30.4° (Epoch: 17 June)

Event Time Altitude Azimuth Distance (km) Brightness Sun altitude
Rises 16:14:35 0° 288° (WNW) 3,748 6.3 -40.0°
Reaches altitude 10° 16:17:14 10° 282° (WNW) 2,901 5.5 -40.4°
Enters shadow 16:20:36 28° 266° (W) 1,971 4.3 -41.0°
